Mitchell, SD

6:16 PM CST on November 18, 2019 (GMT -0600)
Mitchell Municipal

Weather History for KMHE - September, 2019

Change the Weather History Date:

Saturday, September 7, 2019

  Actual Average Record
Temperature  
Mean Temperature 66 °F 66 °F  
Max Temperature 70 °F 79 °F 105 °F (1931)
Min Temperature 62 °F 54 °F 37 °F (1898)
Degree Days  
Heating Degree Days 0 2  
Month to date heating degree days 0 13  
Since 1 July heating degree days 9 30  
Cooling Degree Days 1 4  
Month to date cooling degree days 38 32  
Year to date cooling degree days 832 777  
Growing Degree Days 16 (Base 50)    
Moisture  
Dew Point 60 °F    
Average Humidity 82    
Maximum Humidity 90    
Minimum Humidity 73    
Precipitation  
Precipitation 0.05 in 0.07 in 1.35 in (1946)
Month to date precipitation 0.06 0.59  
Year to date precipitation 25.10 16.94  
Snow  
Snow 0.00 in - 0.00 in ()
Month to date snowfall 0.0  
Since 1 July snowfall 0.0  
Since 1 September snowfall 0.0  
Snow Depth 0.00 in    
Sea Level Pressure  
Sea Level Pressure 30.00 in    
Wind  
Wind Speed 11 mph (ESE)    
Max Wind Speed 21 mph    
Max Gust Speed 28 mph    
Visibility 10 miles    
Events Rain    
T = Trace of Precipitation, MM = Missing Value Source: NWS Daily Summary

Daily Weather History Graph

Daily Weather History Graph

Search for Another Location

Airport or City:

Astronomy

Sep. 07, 2019 Rise Set
Actual Time 7:02 AM CDT 7:57 PM CDT
Civil Twilight 6:32 AM CDT 8:26 PM CDT
Nautical Twilight 5:58 AM CDT 9:01 PM CDT
Astronomical Twilight 5:21 AM CDT 9:37 PM CDT
Moon 4:23 PM CDT (9/7) 12:46 AM CDT (9/7)
Length of Visible Light 13h 53m
Length of Day
12h 55m
Waxing Gibbous, 66% of the Moon is Illuminated
Sep 7
Waxing Gibbous
Sep 13
Full
Sep 21
Last Quarter
Sep 28
New
Oct 5
First Quarter

Hourly Weather History & Observations

Time (CDT) Temp. Dew Point Humidity Pressure Visibility Wind Dir Wind Speed Gust Speed Precip Events Conditions
12:53 AM 69.1 °F 64.0 °F 84% 30.10 in 10.0 mi Calm Calm - N/A   Clear
1:53 AM 69.1 °F 63.0 °F 81% 30.10 in 10.0 mi Calm Calm - 0.00 in Rain Light Rain
2:53 AM 66.9 °F 63.0 °F 87% 30.10 in 10.0 mi NNE 4.6 mph - 0.01 in   Mostly Cloudy
3:53 AM 66.9 °F 63.0 °F 87% 30.10 in 10.0 mi SE 3.5 mph - 0.00 in   Overcast
4:53 AM 66.0 °F 63.0 °F 90% 30.05 in 10.0 mi ESE 8.1 mph - N/A   Mostly Cloudy
5:53 AM 66.0 °F 61.0 °F 84% 30.02 in 10.0 mi East 10.4 mph - N/A   Overcast
6:53 AM 64.9 °F 61.0 °F 87% 30.07 in 10.0 mi ESE 4.6 mph - 0.01 in Rain Light Rain
7:53 AM 64.0 °F 61.0 °F 90% 30.07 in 10.0 mi East 9.2 mph - 0.01 in   Overcast
8:53 AM 64.0 °F 60.1 °F 87% 30.04 in 10.0 mi East 11.5 mph - N/A   Mostly Cloudy
9:53 AM 64.0 °F 59.0 °F 84% 30.05 in 10.0 mi SE 10.4 mph - N/A   Overcast
10:53 AM 64.9 °F 59.0 °F 81% 30.03 in 10.0 mi SE 13.8 mph - 0.00 in   Overcast
11:53 AM 66.0 °F 59.0 °F 78% 30.02 in 10.0 mi SE 9.2 mph - 0.00 in   Overcast
12:53 PM 66.9 °F 60.1 °F 79% 29.99 in 10.0 mi ESE 13.8 mph 23.0 mph 0.00 in   Overcast
1:24 PM 66.9 °F 60.1 °F 79% 29.99 in 10.0 mi SE 16.1 mph 24.2 mph N/A   Overcast
1:53 PM 68.0 °F 61.0 °F 78% 29.97 in 10.0 mi ESE 17.3 mph 23.0 mph N/A   Overcast
2:08 PM 68.0 °F 60.1 °F 76% 29.98 in 10.0 mi SE 15.0 mph 25.3 mph N/A   Overcast
2:34 PM 68.0 °F 60.1 °F 76% 29.97 in 10.0 mi ESE 17.3 mph 27.6 mph N/A   Overcast
2:53 PM 66.9 °F 60.1 °F 79% 29.96 in 10.0 mi ESE 16.1 mph 23.0 mph N/A   Overcast
3:16 PM 66.9 °F 60.1 °F 79% 29.97 in 10.0 mi SE 15.0 mph 26.5 mph N/A   Overcast
3:53 PM 66.9 °F 59.0 °F 76% 29.94 in 10.0 mi ESE 17.3 mph 27.6 mph N/A   Overcast
4:53 PM 66.9 °F 57.9 °F 73% 29.92 in 10.0 mi ESE 16.1 mph 28.8 mph N/A   Overcast
5:53 PM 64.9 °F 57.9 °F 78% 29.94 in 9.0 mi ESE 10.4 mph 19.6 mph 0.00 in Rain Light Rain
6:44 PM 64.9 °F 59.0 °F 81% 29.95 in 10.0 mi ESE 12.7 mph - 0.01 in   Overcast
6:53 PM 64.9 °F 59.0 °F 81% 29.94 in 10.0 mi ESE 12.7 mph - 0.01 in Rain Light Rain
7:53 PM 64.9 °F 60.1 °F 84% 29.96 in 10.0 mi ESE 11.5 mph - 0.00 in Rain Light Rain
8:53 PM 64.9 °F 61.0 °F 87% 29.96 in 10.0 mi ESE 11.5 mph - 0.01 in   Overcast
9:53 PM 64.0 °F 60.1 °F 87% 29.96 in 10.0 mi ESE 12.7 mph 21.9 mph N/A   Overcast
10:53 PM 64.0 °F 60.1 °F 87% 29.96 in 10.0 mi ESE 10.4 mph - 0.00 in   Overcast
11:41 PM 64.0 °F 59.0 °F 84% 29.96 in 10.0 mi ESE 13.8 mph - N/A   Overcast
11:53 PM 63.0 °F 59.0 °F 87% 29.95 in 10.0 mi ESE 10.4 mph - N/A   Overcast